Location: Zagreb
(45.8000°N, 16.0000°E)
Time: 01:10:54
(UTC+02:00)

Transit 2A - All Passes

Search period start: 12 August 2020 00:00
Search period end: 22 August 2020 00:00
Orbit: 591 x 967 km, 66.7° (Epoch: 11 August)

Date Brightness Start Highest point End Pass type
(mag) Time Alt. Az. Time Alt. Az. Time Alt. Az.
12 Aug - 00:02:45 10° NW 00:05:27 13° NNW 00:08:11 10° N visible
12 Aug - 01:49:45 10° N 01:51:47 11° N 01:53:47 10° NNE visible
12 Aug - 03:32:23 10° NNW 03:37:31 24° NE 03:42:30 10° E visible
12 Aug - 05:15:18 10° NNW 05:21:43 88° ENE 05:27:44 10° SSE visible
12 Aug - 07:00:07 10° WNW 07:04:06 18° WSW 07:07:57 10° SW daylight
12 Aug - 19:56:39 10° S 20:02:10 47° ESE 20:08:08 10° NE daylight
12 Aug - 21:40:02 10° WSW 21:45:36 39° NW 21:51:32 10° NNE visible
12 Aug - 23:27:26 10° NW 23:30:46 15° NNW 23:34:09 10° N visible
13 Aug - 01:15:33 10° N 01:17:01 11° N 01:18:29 10° NNE visible
13 Aug - 02:58:21 10° NNW 03:02:59 20° NNE 03:07:30 10° ENE visible
13 Aug - 04:41:08 10° NNW 04:47:31 67° NE 04:53:30 10° SE visible
13 Aug - 06:25:16 10° NW 06:30:15 25° WSW 06:34:58 10° SSW daylight
13 Aug - 19:23:02 10° S 19:28:11 34° ESE 19:33:44 10° NE daylight
13 Aug - 21:05:30 10° SW 21:11:16 51° NW 21:17:26 10° NNE visible
13 Aug - 22:52:12 10° WNW 22:56:07 17° NNW 23:00:08 10° NNE visible
14 Aug - 00:41:01 10° N 00:42:15 11° N 00:43:28 10° NNE visible
14 Aug - 02:24:20 10° NNW 02:28:23 17° NNE 02:32:22 10° ENE visible
14 Aug - 04:07:01 10° NNW 04:13:14 51° NE 04:19:06 10° SE visible
14 Aug - 05:50:42 10° NW 05:56:19 35° WSW 06:01:36 10° S daylight
14 Aug - 18:49:40 10° SSE 18:54:16 25° ESE 18:59:09 10° NE daylight
14 Aug - 20:31:06 10° SW 20:36:59 67° NW 20:43:19 10° NNE visible
14 Aug - 22:17:05 10° WNW 22:21:31 20° NNW 22:26:06 10° NNE visible
15 Aug - 00:06:02 10° NNW 00:07:29 11° N 00:08:56 10° N visible
15 Aug - 01:50:18 10° NNW 01:53:44 15° NNE 01:57:08 10° NE visible
15 Aug - 03:32:55 10° NNW 03:38:54 39° NE 03:44:34 10° ESE visible
15 Aug - 05:16:18 10° NW 05:22:20 48° WSW 05:27:58 10° S visible
15 Aug - 18:16:43 10° SE 18:20:25 17° ESE 18:24:17 10° ENE daylight
15 Aug - 19:56:52 10° SSW 20:02:47 88° WNW 20:09:09 10° NNE daylight
15 Aug - 21:42:05 10° W 21:46:58 24° NW 21:52:04 10° NNE visible
15 Aug - 23:30:45 10° NNW 23:32:44 11° N 23:34:43 10° N visible
16 Aug - 01:16:16 10° N 01:19:04 13° NNE 01:21:49 10° NE visible
16 Aug - 02:58:51 10° NNW 03:04:29 31° NE 03:09:53 10° ESE visible
16 Aug - 04:41:59 10° NW 04:48:17 66° WSW 04:54:08 10° SSE visible
16 Aug - 06:28:44 10° W 06:30:15 11° W 06:31:46 10° WSW daylight
16 Aug - 17:44:35 10° ESE 17:46:37 12° E 17:48:42 10° ENE daylight
16 Aug - 19:22:49 10° SSW 19:28:39 70° ESE 19:34:56 10° NE daylight
16 Aug - 21:07:14 10° W 21:12:30 30° NW 21:18:02 10° NNE visible
16 Aug - 22:55:23 10° NW 22:57:59 13° NNW 23:00:37 10° N visible
17 Aug - 00:42:12 10° N 00:44:20 12° NNE 00:46:27 10° NNE visible
17 Aug - 02:24:49 10° NNW 02:30:02 25° NE 02:35:03 10° E visible
17 Aug - 04:07:45 10° NNW 04:14:09 88° WSW 04:20:06 10° SSE visible
17 Aug - 05:52:48 10° WNW 05:56:28 16° WSW 05:59:59 10° SW daylight
17 Aug - 18:48:56 10° S 18:54:35 51° ESE 19:00:39 10° NE daylight
17 Aug - 20:32:31 10° WSW 20:38:05 37° NW 20:43:58 10° NNE visible
17 Aug - 22:20:03 10° NW 22:23:18 14° NNW 22:26:35 10° N visible
18 Aug - 00:08:01 10° N 00:09:35 11° N 00:11:08 10° NNE visible
18 Aug - 01:50:47 10° NNW 01:55:30 21° NNE 02:00:05 10° E visible
18 Aug - 03:33:35 10° NNW 03:39:58 71° NE 03:45:54 10° SE visible
18 Aug - 05:17:52 10° NW 05:22:37 23° WSW 05:27:08 10° SSW visible
18 Aug - 18:15:16 10° S 18:20:34 37° ESE 18:26:16 10° NE daylight
18 Aug - 19:57:57 10° WSW 20:03:44 48° NW 20:09:53 10° NNE daylight
18 Aug - 21:44:48 10° WNW 21:48:39 16° NNW 21:52:33 10° NNE visible
18 Aug - 23:33:34 10° N 23:34:49 11° N 23:36:03 10° NNE visible
19 Aug - 01:16:45 10° NNW 01:20:55 18° NNE 01:24:59 10° ENE visible
19 Aug - 02:59:27 10° NNW 03:05:42 54° NE 03:11:33 10° SE visible
19 Aug - 04:43:15 10° NW 04:48:42 32° WSW 04:53:50 10° S visible
19 Aug - 17:41:50 10° SSE 17:46:38 27° ESE 17:51:44 10° NE daylight
19 Aug - 19:23:31 10° SW 19:29:27 63° NW 19:35:46 10° NNE daylight
19 Aug - 21:09:39 10° WNW 21:14:02 19° NNW 21:18:32 10° NNE visible
19 Aug - 22:58:39 10° NNW 23:00:02 11° N 23:01:25 10° N visible
20 Aug - 00:42:44 10° NNW 00:46:16 15° NNE 00:49:46 10° ENE visible
20 Aug - 02:25:22 10° NNW 02:31:22 41° NE 02:37:02 10° ESE visible
20 Aug - 04:08:48 10° NW 04:14:44 44° WSW 04:20:15 10° S visible
20 Aug - 17:08:46 10° SE 17:12:46 19° ESE 17:16:57 10° ENE daylight
20 Aug - 18:49:16 10° SW 18:55:13 83° WNW 19:01:37 10° NNE daylight
20 Aug - 20:34:38 10° W 20:39:29 23° NW 20:44:30 10° NNE visible
20 Aug - 22:23:24 10° NNW 22:25:17 11° N 22:27:10 10° N visible
21 Aug - 00:08:42 10° N 00:11:36 13° NNE 00:14:28 10° NE visible
21 Aug - 01:51:18 10° NNW 01:56:59 33° NE 02:02:23 10° ESE visible
21 Aug - 03:34:28 10° NW 03:40:42 61° WSW 03:46:27 10° SSE visible
21 Aug - 16:36:21 10° SE 16:38:57 13° E 16:41:38 10° ENE daylight
21 Aug - 18:15:09 10° SSW 18:21:04 74° ESE 18:27:25 10° NE daylight
21 Aug - 19:59:45 10° W 20:05:00 29° NW 20:10:28 10° NNE daylight
21 Aug - 21:48:02 10° NW 21:50:32 12° NNW 21:53:03 10° N visible
21 Aug - 23:34:38 10° N 23:36:53 12° NNE 23:39:06 10° NNE visible
